Hourly Weather Holovets'ko

Today, 12 April, Monday

Time Temperature Precipitation Wind Pressure Humidity
00:00 +8°C° 0 mm 3 mps 707 mmHg 96%
01:00 +8°C° 0 mm 2 mps 707 mmHg 100%
02:00 +8°C° 0 mm 1 mps 706 mmHg 91%
03:00 +7°C° 0 mm 2 mps 706 mmHg 89%
04:00 +7°C° 0 mm 2 mps 706 mmHg 92%
05:00 +7°C° 0 mm 2 mps 706 mmHg 92%
06:00 +6°C° 0 mm 2 mps 706 mmHg 92%
07:00 +7°C° 0 mm 3 mps 706 mmHg 95%
08:00 +8°C° 0 mm 3 mps 706 mmHg 95%
09:00 +10°C° 0 mm 4 mps 706 mmHg 90%
10:00 +10°C° 0 mm 5 mps 706 mmHg 87%
11:00 +12°C° 0 mm 5 mps 707 mmHg 88%
12:00 +12°C° 0 mm 5 mps 707 mmHg 90%
13:00 +12°C° 0 mm 5 mps 707 mmHg 89%
14:00 +13°C° 0 mm 4 mps 707 mmHg 88%
15:00 +13°C° 0 mm 4 mps 706 mmHg 87%
16:00 +13°C° 0 mm 4 mps 706 mmHg 88%
17:00 +13°C° 0 mm 4 mps 706 mmHg 88%
18:00 +12°C° 0 mm 3 mps 706 mmHg 92%
19:00 +11°C° 0 mm 3 mps 705 mmHg 95%
20:00 +10°C° 0 mm 2 mps 705 mmHg 94%
21:00 +11°C° 0 mm 1 mps 705 mmHg 97%
22:00 +10°C° 0 mm 1 mps 705 mmHg 97%
23:00 +10°C° 0 mm 1 mps 705 mmHg 96%

Tomorrow, 13 April, Tuesday

Time Temperature Precipitation Wind Pressure Humidity
00:00 +10°C° 0 mm 1 mps 705 mmHg 95%
01:00 +10°C° 0 mm 1 mps 704 mmHg 94%
02:00 +9°C° 0 mm 1 mps 704 mmHg 92%
03:00 +9°C° 0 mm 1 mps 704 mmHg 90%
04:00 +9°C° 0 mm 1 mps 704 mmHg 85%
05:00 +8°C° 0 mm 0 mps 704 mmHg 84%
06:00 +9°C° 0 mm 1 mps 704 mmHg 84%
07:00 +8°C° 0 mm 0 mps 704 mmHg 84%
08:00 +10°C° 0 mm 1 mps 704 mmHg 89%
09:00 +12°C° 0 mm 1 mps 704 mmHg 89%
10:00 +13°C° 0 mm 2 mps 704 mmHg 89%
11:00 +13°C° 0 mm 3 mps 704 mmHg 91%
12:00 +14°C° 0 mm 4 mps 703 mmHg 94%
13:00 +13°C° 1.1 mm 3 mps 703 mmHg 100%
14:00 +11°C° 9.5 mm 3 mps 702 mmHg 100%
15:00 +12°C° 1.6 mm 4 mps 702 mmHg 100%
16:00 +11°C° 1.6 mm 4 mps 701 mmHg 100%
17:00 +10°C° 2.8 mm 4 mps 701 mmHg 100%
18:00 +9°C° 3.5 mm 2 mps 701 mmHg 100%
19:00 +7°C° 3 mm 4 mps 700 mmHg 100%
20:00 +7°C° 3.2 mm 3 mps 700 mmHg 100%
21:00 +7°C° 2 mm 3 mps 700 mmHg 100%
22:00 +5°C° 2.3 mm 3 mps 699 mmHg 100%
23:00 +4°C° 0.4 mm 3 mps 699 mmHg 100%

Day after tomorrow, 14 April, Wednesday

Time Temperature Precipitation Wind Pressure Humidity
00:00 +4°C° 0 mm 3 mps 698 mmHg 100%
01:00 +4°C° 0 mm 2 mps 698 mmHg 100%
02:00 +2°C° 0 mm 3 mps 698 mmHg 100%
03:00 +2°C° 0.1 mm 3 mps 697 mmHg 100%
04:00 +1°C° 0.6 mm 3 mps 697 mmHg 100%
05:00 0°C° 1.6 mm 3 mps 697 mmHg 100%
06:00 0°C° 0.9 mm 3 mps 697 mmHg 100%
07:00 0°C° 0.7 mm 3 mps 697 mmHg 100%
08:00 0°C° 0.1 mm 3 mps 697 mmHg 100%
09:00 -1°C° 0.3 mm 3 mps 697 mmHg 100%
10:00 -1°C° 0.5 mm 4 mps 697 mmHg 100%
11:00 -1°C° 0.6 mm 4 mps 697 mmHg 100%
12:00 -1°C° 0.5 mm 4 mps 697 mmHg 100%
13:00 0°C° 0.4 mm 4 mps 697 mmHg 100%
14:00 0°C° 0.2 mm 5 mps 697 mmHg 100%
15:00 0°C° 0.1 mm 5 mps 697 mmHg 100%
16:00 0°C° 0 mm 5 mps 697 mmHg 100%
17:00 -1°C° 0 mm 5 mps 697 mmHg 100%
18:00 -1°C° 0 mm 4 mps 697 mmHg 100%
19:00 -2°C° 0 mm 4 mps 697 mmHg 100%
20:00 -1°C° 0.1 mm 3 mps 697 mmHg 100%
21:00 -1°C° 0.1 mm 3 mps 697 mmHg 100%
22:00 -1°C° 0.1 mm 2 mps 697 mmHg 100%
23:00 -1°C° 0 mm 2 mps 697 mmHg 100%

15 April, Thursday

Time Temperature Precipitation Wind Pressure Humidity
00:00 -1°C° 0 mm 2 mps 697 mmHg 100%
01:00 +1°C° 0 mm 1 mps 696 mmHg 100%
02:00 +1°C° 0 mm 1 mps 697 mmHg 100%
03:00 +1°C° 0 mm 1 mps 696 mmHg 100%
04:00 +1°C° 0 mm 1 mps 696 mmHg 100%
05:00 +1°C° 0.1 mm 1 mps 696 mmHg 100%
06:00 0°C° 0.3 mm 1 mps 696 mmHg 100%
07:00 +1°C° 0.4 mm 1 mps 696 mmHg 100%
08:00 +1°C° 0.5 mm 1 mps 696 mmHg 100%
09:00 +1°C° 0.4 mm 1 mps 697 mmHg 100%
10:00 +2°C° 0.2 mm 1 mps 697 mmHg 100%
11:00 +2°C° 0.1 mm 2 mps 697 mmHg 100%
12:00 +4°C° 0 mm 2 mps 697 mmHg 100%
13:00 +3°C° 0 mm 3 mps 697 mmHg 100%
14:00 +1°C° 0 mm 4 mps 697 mmHg 100%
15:00 +1°C° 0.1 mm 4 mps 698 mmHg 100%
16:00 +2°C° 0.2 mm 3 mps 697 mmHg 100%
17:00 0°C° 0.2 mm 4 mps 697 mmHg 100%
18:00 0°C° 0.1 mm 4 mps 697 mmHg 100%
19:00 0°C° 0.4 mm 3 mps 697 mmHg 100%
20:00 -1°C° 0.6 mm 3 mps 697 mmHg 100%
21:00 -1°C° 0.6 mm 3 mps 697 mmHg 100%
22:00 -1°C° 0.7 mm 3 mps 696 mmHg 100%
23:00 -1°C° 0.3 mm 3 mps 696 mmHg 100%

16 April, Friday

Time Temperature Precipitation Wind Pressure Humidity
00:00 -1°C° 0.1 mm 3 mps 696 mmHg 100%
01:00 -1°C° 0 mm 3 mps 696 mmHg 100%
02:00 -1°C° 0 mm 3 mps 696 mmHg 100%
03:00 -1°C° 0 mm 3 mps 696 mmHg 100%
04:00 -2°C° 0 mm 3 mps 696 mmHg 100%
05:00 -3°C° 0 mm 4 mps 696 mmHg 100%
06:00 -2°C° 0 mm 3 mps 696 mmHg 100%
07:00 -1°C° 0 mm 3 mps 696 mmHg 100%
08:00 -1°C° 0 mm 3 mps 697 mmHg 100%
09:00 0°C° 0 mm 3 mps 697 mmHg 100%
10:00 0°C° 0 mm 4 mps 697 mmHg 100%
11:00 +1°C° 0 mm 4 mps 698 mmHg 100%
12:00 +1°C° 0 mm 4 mps 698 mmHg 100%
13:00 +2°C° 0 mm 5 mps 698 mmHg 100%
14:00 +3°C° 0.2 mm 4 mps 698 mmHg 100%
15:00 +3°C° 1.5 mm 4 mps 699 mmHg 100%
16:00 +3°C° 1.2 mm 3 mps 699 mmHg 100%
17:00 +3°C° 0.3 mm 4 mps 699 mmHg 100%
18:00 +3°C° 0.1 mm 3 mps 699 mmHg 100%
19:00 +3°C° 0.1 mm 3 mps 699 mmHg 100%
20:00 +2°C° 1.1 mm 3 mps 699 mmHg 100%
21:00 +3°C° 1.3 mm 2 mps 699 mmHg 100%
22:00 +3°C° 2.1 mm 2 mps 699 mmHg 100%
23:00 +3°C° 2.3 mm 3 mps 699 mmHg 100%

17 April, Saturday

Time Temperature Precipitation Wind Pressure Humidity
00:00 +4°C° 0.7 mm 2 mps 699 mmHg 100%
01:00 +4°C° 1.4 mm 2 mps 699 mmHg 100%
02:00 +4°C° 1.3 mm 2 mps 699 mmHg 100%
03:00 +4°C° 0.1 mm 2 mps 700 mmHg 100%
04:00 +4°C° 0 mm 2 mps 700 mmHg 100%
05:00 +5°C° 0 mm 1 mps 700 mmHg 100%
06:00 +5°C° 0 mm 1 mps 700 mmHg 100%
07:00 +5°C° 0 mm 1 mps 701 mmHg 100%
08:00 +5°C° 0 mm 1 mps 701 mmHg 100%
09:00 +6°C° 0 mm 1 mps 702 mmHg 100%
10:00 +7°C° 0 mm 1 mps 702 mmHg 100%
11:00 +7°C° 0 mm 1 mps 703 mmHg 100%
12:00 +8°C° 0 mm 1 mps 703 mmHg 100%
13:00 +8°C° 0 mm 2 mps 703 mmHg 100%
14:00 +7°C° 0 mm 4 mps 704 mmHg 100%
15:00 +7°C° 0 mm 4 mps 704 mmHg 100%
16:00 +9°C° 0 mm 3 mps 704 mmHg 98%
17:00 +8°C° 0 mm 4 mps 704 mmHg 97%
18:00 +7°C° 0 mm 4 mps 704 mmHg 96%
19:00 +6°C° 0 mm 4 mps 704 mmHg 98%
20:00 +6°C° 0 mm 4 mps 704 mmHg 100%
21:00 +5°C° 0 mm 3 mps 704 mmHg 100%
22:00 +5°C° 0 mm 3 mps 704 mmHg 100%
23:00 +5°C° 0 mm 3 mps 705 mmHg 100%
Show more